Weather History for Resolute, NU

Change the Weather History Date:

Monday, October 24, 2011

  Actual Average Record
Temperature  
Mean Temperature 8 °F -  
Max Temperature 9 °F 6 °F 28 °F (2006)
Min Temperature 6 °F -1 °F -11 °F (2000)
Degree Days  
Heating Degree Days 58    
Moisture  
Dew Point 6 °F    
Average Humidity 88    
Maximum Humidity 92    
Minimum Humidity 83    
Precipitation  
Precipitation 0.02 in - - ()
Sea Level Pressure  
Sea Level Pressure 29.62 in    
Wind  
Wind Speed 11 mph ()    
Max Wind Speed 21 mph    
Max Gust Speed 24 mph    
Visibility 6.3 miles    
Events Rain , Snow    
Averages and records for this station are not official NWS values.
T = Trace of Precipitation, MM = Missing Value Source: Averaged Metar Reports

Daily Weather History Graph

Daily Weather History Graph

Search for Another Location

Airport:

Trip Planner

Search our weather history database for the weather conditions in past years. The results will help you decide how hot, cold, wet, or windy it might be!

Date:

Astronomy

Oct. 24, 2011 Rise Set
Actual Time 10:03 AM CDT 4:02 PM CDT
Civil Twilight 8:27 AM CDT 5:38 PM CDT
Nautical Twilight 6:53 AM CDT 7:11 PM CDT
Astronomical Twilight 5:19 AM CDT 8:44 PM CDT
Moon 5:39 AM CDT (10/24) 3:44 PM CDT (10/24)
Length of Visible Light 9h 10m
Length of Day
5h 58m
Waning Crescent, 7% of the Moon is Illuminated
Oct 24
Waning Crescent
Oct 26
New
Nov 2
First Quarter
Nov 10
Full
Nov 18
Last Quarter

Hourly Weather History & Observations

Time (CDT) Temp. Windchill Dew Point Humidity Pressure Visibility Wind Dir Wind Speed Gust Speed Precip Events Conditions
12:00 AM 8.6 °F -3.7 °F 5.0 °F 85% 29.70 in 8.0 mi South 8.1 mph - N/A Snow Light Snow
1:00 AM 8 °F - 5 °F 83% 29.70 in 7 mi SSE 10.4 mph - - Snow Light Snow
1:00 AM 8.6 °F -5.5 °F 5.0 °F 85% 29.70 in 8.0 mi SSE 10.4 mph - N/A Snow Light Snow
1:38 AM - - - N/A% - 8.0 mi South 11.5 mph - N/A   Unknown
2:00 AM 8.6 °F -5.5 °F 5.0 °F 85% 29.70 in 8.0 mi South 10.4 mph - N/A Snow Light Snow
2:36 AM - - - N/A% - 10.0 mi SSE 8.1 mph - N/A   Unknown
3:00 AM 6.8 °F -6.9 °F 5.0 °F 92% 29.69 in 10.0 mi SSE 9.2 mph - N/A Snow Light Snow
4:00 AM 8.6 °F -6.3 °F 6.8 °F 92% 29.68 in 10.0 mi SSE 11.5 mph - N/A Snow Light Snow
5:00 AM 8.6 °F -5.5 °F 5.0 °F 85% 29.67 in 8.0 mi SSE 10.4 mph - N/A Snow Light Snow
6:00 AM 8.6 °F -6.3 °F 6.8 °F 92% 29.65 in 8.0 mi SSE 11.5 mph - N/A Snow Light Snow
7:00 AM 9 °F - 6 °F 83% 29.65 in 7 mi SSE 11.5 mph - - Rain Light Freezing Rain
7:00 AM 8.6 °F -6.3 °F 6.8 °F 92% 29.65 in 8.0 mi SSE 11.5 mph - N/A Snow Light Snow
8:00 AM 8.6 °F -4.7 °F 5.0 °F 85% 29.63 in 10.0 mi South 9.2 mph - N/A Snow Light Snow
9:00 AM 6.8 °F -9.3 °F 5.0 °F 92% 29.63 in 8.0 mi SSE 12.7 mph - N/A Snow Light Snow
10:00 AM 8.6 °F -7.0 °F 5.0 °F 85% 29.62 in 12.0 mi South 12.7 mph - N/A Snow Light Snow
11:00 AM 8.6 °F -9.5 °F 6.8 °F 92% 29.62 in 15.0 mi South 17.3 mph - N/A Snow Light Snow
12:00 PM 8.6 °F -8.9 °F 6.8 °F 92% 29.62 in 6.0 mi SSE 16.1 mph - N/A Snow Light Snow
1:00 PM 9 °F - 7 °F 88% 29.61 in 4 mi SSE 20.7 mph - - Snow Light Snow
2:00 PM 8.6 °F -8.9 °F 6.8 °F 92% 29.60 in 6.0 mi SSE 16.1 mph - N/A Snow Light Snow
3:00 PM 8.6 °F -8.9 °F 6.8 °F 92% 29.60 in 15.0 mi SSE 16.1 mph - N/A Snow Light Snow
3:47 PM - - - N/A% - 5.0 mi SE 20.7 mph - N/A   Unknown
4:00 PM 8.6 °F -10.0 °F 6.8 °F 92% 29.59 in 1.5 mi SSE 18.4 mph - N/A Snow Light Snow
4:12 PM - - - N/A% - 0.8 mi SSE 18.4 mph 24.2 mph N/A   Unknown
4:25 PM - - - N/A% - 2.5 mi SSE 19.6 mph - N/A   Unknown
5:00 PM 8.6 °F -7.7 °F 6.8 °F 92% 29.59 in 1.0 mi SSE 13.8 mph 19.6 mph N/A Snow Light Snow
5:42 PM - - - N/A% - 0.8 mi SE 19.6 mph - N/A   Unknown
6:00 PM 10.4 °F -6.0 °F 6.8 °F 85% 29.58 in 1.2 mi SE 15.0 mph 20.7 mph N/A Snow Light Snow
7:00 PM 9 °F - 6 °F 84% 29.57 in 1 mi SE 13.8 mph - - Snow Light Snow
7:00 PM 8.6 °F -7.7 °F 6.8 °F 92% 29.57 in 1.0 mi SE 13.8 mph - N/A Snow Light Snow
8:00 PM 8.6 °F -8.9 °F 5.0 °F 85% 29.56 in 3.0 mi ESE 16.1 mph - N/A Snow Light Snow
9:00 PM 8.6 °F -6.3 °F 5.0 °F 85% 29.55 in 6.0 mi ESE 11.5 mph - N/A Snow Light Snow
10:00 PM 8.6 °F -8.3 °F 5.0 °F 85% 29.53 in 6.0 mi ESE 15.0 mph - N/A Snow Light Snow
11:00 PM 8.6 °F -8.3 °F 6.8 °F 92% 29.52 in 3.0 mi East 15.0 mph - N/A Snow Light Snow